Wetterdaten: Sonntag, 20.09.2015
Datum Zeit Temp. A. Feuchte A. Luftdruck Regen Wind Richtung Richtung Sonnenschein ET UV Solar Taupunkt Windchill Windben Empfang
20.09.2015 00:01 13,8 C 91 % 1020,7 hPa 0,0 l/m 0,0 km/h (0 Bft) S 175 0 min 0,000 mm 0,0 UV-I 0 W/m 12,4 C 13,8 C 0,0 km/h (0 Bft) 0,00 %
20.09.2015 00:06 13,8 C 92 % 1020,8 hPa 0,0 l/m 0,0 km/h (0 Bft) O 80 0 min 0,000 mm 0,0 UV-I 0 W/m 12,5 C 13,8 C 0,0 km/h (0 Bft) 0,00 %
20.09.2015 00:11 13,7 C 92 % 1020,9 hPa 0,0 l/m 0,0 km/h (0 Bft) O 99 0 min 0,000 mm 0,0 UV-I 0 W/m 12,4 C 13,7 C 0,0 km/h (0 Bft) 0,00 %
20.09.2015 00:16 13,7 C 92 % 1020,7 hPa 0,0 l/m 0,0 km/h (0 Bft) S-SW 212 0 min 0,000 mm 0,0 UV-I 0 W/m 12,4 C 13,7 C 0,0 km/h (0 Bft) 0,00 %
20.09.2015 00:21 13,7 C 92 % 1020,7 hPa 0,0 l/m 1,4 km/h (1 Bft) S-SW 202 0 min 0,000 mm 0,0 UV-I 0 W/m 12,4 C 13,7 C 4,0 km/h (1 Bft) 0,00 %
20.09.2015 00:26 13,7 C 92 % 1020,8 hPa 0,0 l/m 0,4 km/h (0 Bft) NW 316 0 min 0,000 mm 0,0 UV-I 0 W/m 12,4 C 13,7 C 4,0 km/h (1 Bft) 0,00 %
20.09.2015 00:31 13,7 C 92 % 1020,9 hPa 0,0 l/m 0,0 km/h (0 Bft) O 90 0 min 0,000 mm 0,0 UV-I 0 W/m 12,4 C 13,7 C 0,0 km/h (0 Bft) 0,00 %
20.09.2015 00:36 13,7 C 92 % 1020,9 hPa 0,0 l/m 0,0 km/h (0 Bft) NO 35 0 min 0,000 mm 0,0 UV-I 0 W/m 12,4 C 13,7 C 0,0 km/h (0 Bft) 0,00 %
20.09.2015 00:41 13,6 C 92 % 1020,7 hPa 0,0 l/m 0,0 km/h (0 Bft) O-NO 76 0 min 0,000 mm 0,0 UV-I 0 W/m 12,3 C 13,6 C 0,0 km/h (0 Bft) 0,00 %
20.09.2015 00:47 13,6 C 91 % 1020,9 hPa 0,0 l/m 3,2 km/h (1 Bft) SW 226 0 min 0,000 mm 0,0 UV-I 0 W/m 12,2 C 13,6 C 7,9 km/h (2 Bft) 0,00 %
20.09.2015 00:52 13,7 C 91 % 1020,9 hPa 0,3 l/m 3,2 km/h (1 Bft) SW 225 0 min 0,000 mm 0,0 UV-I 0 W/m 12,3 C 13,7 C 4,0 km/h (1 Bft) 0,00 %
20.09.2015 00:57 13,7 C 91 % 1020,8 hPa 0,0 l/m 2,2 km/h (1 Bft) W 260 0 min 0,000 mm 0,0 UV-I 0 W/m 12,3 C 13,7 C 4,0 km/h (1 Bft) 0,00 %
20.09.2015 01:02 13,7 C 91 % 1020,9 hPa 0,0 l/m 0,7 km/h (0 Bft) O-NO 71 0 min 0,000 mm 0,0 UV-I 0 W/m 12,3 C 13,7 C 4,0 km/h (1 Bft) 0,00 %
20.09.2015 01:07 13,6 C 91 % 1020,7 hPa 0,0 l/m 1,4 km/h (1 Bft) O 99 0 min 0,000 mm 0,0 UV-I 0 W/m 12,2 C 13,6 C 4,0 km/h (1 Bft) 0,00 %
20.09.2015 01:12 13,6 C 91 % 1020,8 hPa 0,3 l/m 1,4 km/h (1 Bft) O-SO 121 0 min 0,000 mm 0,0 UV-I 0 W/m 12,2 C 13,6 C 4,0 km/h (1 Bft) 0,00 %
20.09.2015 01:17 13,5 C 91 % 1021,0 hPa 0,0 l/m 0,0 km/h (0 Bft) N-NW 329 0 min 0,000 mm 0,0 UV-I 0 W/m 12,1 C 13,5 C 0,0 km/h (0 Bft) 0,00 %
20.09.2015 01:22 13,5 C 91 % 1020,9 hPa 0,0 l/m 0,7 km/h (0 Bft) W-SW 254 0 min 0,000 mm 0,0 UV-I 0 W/m 12,1 C 13,5 C 4,0 km/h (1 Bft) 0,00 %
20.09.2015 01:27 13,4 C 92 % 1020,8 hPa 0,0 l/m 0,0 km/h (0 Bft) O-NO 68 0 min 0,000 mm 0,0 UV-I 0 W/m 12,1 C 13,4 C 0,0 km/h (0 Bft) 0,00 %
20.09.2015 01:32 13,3 C 92 % 1021,0 hPa 0,0 l/m 4,0 km/h (1 Bft) S 175 0 min 0,000 mm 0,0 UV-I 0 W/m 12,0 C 13,3 C 7,9 km/h (2 Bft) 0,00 %
20.09.2015 01:37 13,3 C 92 % 1021,0 hPa 0,3 l/m 1,4 km/h (1 Bft) O 88 0 min 0,000 mm 0,0 UV-I 0 W/m 12,0 C 13,3 C 4,0 km/h (1 Bft) 0,00 %
20.09.2015 01:42 13,2 C 92 % 1020,8 hPa 0,0 l/m 1,8 km/h (1 Bft) W-SW 249 0 min 0,000 mm 0,0 UV-I 0 W/m 11,9 C 13,2 C 4,0 km/h (1 Bft) 0,00 %
20.09.2015 01:47 13,1 C 92 % 1020,9 hPa 0,0 l/m 0,7 km/h (0 Bft) O 100 0 min 0,000 mm 0,0 UV-I 0 W/m 11,8 C 13,1 C 4,0 km/h (1 Bft) 0,00 %
20.09.2015 01:52 13,0 C 93 % 1021,0 hPa 0,3 l/m 1,8 km/h (1 Bft) S-SW 203 0 min 0,000 mm 0,0 UV-I 0 W/m 11,9 C 13,0 C 4,0 km/h (1 Bft) 0,00 %
20.09.2015 01:57 13,0 C 93 % 1021,1 hPa 0,0 l/m 0,7 km/h (0 Bft) SW 223 0 min 0,000 mm 0,0 UV-I 0 W/m 11,9 C 13,0 C 4,0 km/h (1 Bft) 0,00 %
20.09.2015 02:02 12,9 C 94 % 1020,9 hPa 0,3 l/m 4,7 km/h (1 Bft) SW 216 0 min 0,000 mm 0,0 UV-I 0 W/m 12,0 C 12,9 C 7,9 km/h (2 Bft) 0,00 %
20.09.2015 02:07 12,9 C 94 % 1021,1 hPa 0,0 l/m 5,4 km/h (1 Bft) S-SW 212 0 min 0,000 mm 0,0 UV-I 0 W/m 12,0 C 12,9 C 7,9 km/h (2 Bft) 0,00 %
20.09.2015 02:12 12,9 C 95 % 1021,1 hPa 0,3 l/m 4,3 km/h (1 Bft) SW 235 0 min 0,000 mm 0,0 UV-I 0 W/m 12,1 C 12,9 C 7,9 km/h (2 Bft) 0,00 %
20.09.2015 02:17 12,8 C 95 % 1021,0 hPa 0,0 l/m 0,4 km/h (0 Bft) N-NW 339 0 min 0,000 mm 0,0 UV-I 0 W/m 12,0 C 12,8 C 4,0 km/h (1 Bft) 0,00 %
20.09.2015 02:22 12,8 C 95 % 1020,9 hPa 0,0 l/m 0,7 km/h (0 Bft) S-SO 165 0 min 0,000 mm 0,0 UV-I 0 W/m 12,0 C 12,8 C 4,0 km/h (1 Bft) 0,00 %
20.09.2015 02:27 12,7 C 95 % 1021,0 hPa 0,3 l/m 3,2 km/h (1 Bft) W-SW 256 0 min 0,000 mm 0,0 UV-I 0 W/m 11,9 C 12,7 C 4,0 km/h (1 Bft) 0,00 %
20.09.2015 02:32 12,7 C 95 % 1020,9 hPa 0,0 l/m 0,0 km/h (0 Bft) NO 50 0 min 0,000 mm 0,0 UV-I 0 W/m 11,9 C 12,7 C 0,0 km/h (0 Bft) 0,00 %
20.09.2015 02:37 12,6 C 95 % 1020,9 hPa 0,0 l/m 2,9 km/h (1 Bft) SW 217 0 min 0,000 mm 0,0 UV-I 0 W/m 11,8 C 12,6 C 7,9 km/h (2 Bft) 0,00 %
20.09.2015 02:42 12,6 C 95 % 1021,0 hPa 0,0 l/m 0,0 km/h (0 Bft) O-SO 102 0 min 0,000 mm 0,0 UV-I 0 W/m 11,8 C 12,6 C 0,0 km/h (0 Bft) 0,00 %
20.09.2015 02:47 12,6 C 95 % 1021,1 hPa 0,0 l/m 0,0 km/h (0 Bft) O-NO 72 0 min 0,000 mm 0,0 UV-I 0 W/m 11,8 C 12,6 C 0,0 km/h (0 Bft) 0,00 %
20.09.2015 02:52 12,6 C 95 % 1021,1 hPa 0,0 l/m 0,0 km/h (0 Bft) NO 51 0 min 0,000 mm 0,0 UV-I 0 W/m 11,8 C 12,6 C 0,0 km/h (0 Bft) 0,00 %
20.09.2015 02:57 12,7 C 95 % 1021,1 hPa 0,0 l/m 0,4 km/h (0 Bft) O-SO 108 0 min 0,000 mm 0,0 UV-I 0 W/m 11,9 C 12,7 C 4,0 km/h (1 Bft) 0,00 %
20.09.2015 03:02 12,7 C 96 % 1021,1 hPa 0,0 l/m 2,9 km/h (1 Bft) S 184 0 min 0,000 mm 0,0 UV-I 0 W/m 12,1 C 12,7 C 7,9 km/h (2 Bft) 0,00 %
20.09.2015 03:07 12,7 C 96 % 1021,0 hPa 0,0 l/m 0,4 km/h (0 Bft) O-SO 116 0 min 0,000 mm 0,0 UV-I 0 W/m 12,1 C 12,7 C 4,0 km/h (1 Bft) 0,00 %
20.09.2015 03:12 12,7 C 96 % 1021,2 hPa 0,0 l/m 4,7 km/h (1 Bft) SW 231 0 min 0,000 mm 0,0 UV-I 0 W/m 12,1 C 12,7 C 7,9 km/h (2 Bft) 0,00 %
20.09.2015 03:17 12,7 C 96 % 1021,1 hPa 0,0 l/m 1,4 km/h (1 Bft) O-NO 77 0 min 0,000 mm 0,0 UV-I 0 W/m 12,1 C 12,7 C 4,0 km/h (1 Bft) 0,00 %
20.09.2015 03:22 12,7 C 96 % 1020,9 hPa 0,0 l/m 0,7 km/h (0 Bft) NO 44 0 min 0,000 mm 0,0 UV-I 0 W/m 12,1 C 12,7 C 4,0 km/h (1 Bft) 0,00 %
20.09.2015 03:27 12,7 C 96 % 1021,2 hPa 0,0 l/m 2,2 km/h (1 Bft) SW 234 0 min 0,000 mm 0,0 UV-I 0 W/m 12,1 C 12,7 C 4,0 km/h (1 Bft) 0,00 %
20.09.2015 03:32 12,7 C 96 % 1020,9 hPa 0,0 l/m 6,5 km/h (2 Bft) W-SW 256 0 min 0,000 mm 0,0 UV-I 0 W/m 12,1 C 12,7 C 7,9 km/h (2 Bft) 0,00 %
20.09.2015 03:37 12,7 C 96 % 1021,1 hPa 0,0 l/m 2,2 km/h (1 Bft) SW 224 0 min 0,000 mm 0,0 UV-I 0 W/m 12,1 C 12,7 C 4,0 km/h (1 Bft) 0,00 %
20.09.2015 03:42 12,7 C 96 % 1021,2 hPa 0,0 l/m 2,9 km/h (1 Bft) N-NW 338 0 min 0,000 mm 0,0 UV-I 0 W/m 12,1 C 12,7 C 7,9 km/h (2 Bft) 0,00 %
20.09.2015 03:47 12,7 C 96 % 1021,2 hPa 0,0 l/m 0,0 km/h (0 Bft) N-NO 32 0 min 0,000 mm 0,0 UV-I 0 W/m 12,1 C 12,7 C 0,0 km/h (0 Bft) 0,00 %
20.09.2015 03:52 12,6 C 96 % 1021,3 hPa 0,0 l/m 0,0 km/h (0 Bft) O-SO 119 0 min 0,000 mm 0,0 UV-I 0 W/m 12,0 C 12,6 C 0,0 km/h (0 Bft) 0,00 %
20.09.2015 03:57 12,6 C 96 % 1020,9 hPa 0,0 l/m 4,7 km/h (1 Bft) S-SW 192 0 min 0,000 mm 0,0 UV-I 0 W/m 12,0 C 12,6 C 11,9 km/h (2 Bft) 0,00 %
20.09.2015 04:02 12,6 C 96 % 1021,0 hPa 0,0 l/m 2,9 km/h (1 Bft) O-SO 112 0 min 0,000 mm 0,0 UV-I 0 W/m 12,0 C 12,6 C 4,0 km/h (1 Bft) 0,00 %
20.09.2015 04:07 12,5 C 96 % 1021,0 hPa 0,0 l/m 0,4 km/h (0 Bft) O 90 0 min 0,000 mm 0,0 UV-I 0 W/m 11,9 C 12,5 C 4,0 km/h (1 Bft) 0,00 %
20.09.2015 04:12 12,5 C 96 % 1020,9 hPa 0,0 l/m 5,4 km/h (1 Bft) S-SW 201 0 min 0,000 mm 0,0 UV-I 0 W/m 11,9 C 12,5 C 7,9 km/h (2 Bft) 0,00 %
20.09.2015 04:17 12,5 C 96 % 1020,8 hPa 0,0 l/m 2,2 km/h (1 Bft) S-SW 212 0 min 0,000 mm 0,0 UV-I 0 W/m 11,9 C 12,5 C 4,0 km/h (1 Bft) 0,00 %
20.09.2015 04:22 12,4 C 96 % 1020,8 hPa 0,0 l/m 1,4 km/h (1 Bft) S 177 0 min 0,000 mm 0,0 UV-I 0 W/m 11,8 C 12,4 C 4,0 km/h (1 Bft) 0,00 %
20.09.2015 04:27 12,4 C 96 % 1020,6 hPa 0,0 l/m 2,2 km/h (1 Bft) SW 231 0 min 0,000 mm 0,0 UV-I 0 W/m 11,8 C 12,4 C 4,0 km/h (1 Bft) 0,00 %
20.09.2015 04:32 12,4 C 96 % 1020,8 hPa 0,3 l/m 1,8 km/h (1 Bft) S-SW 212 0 min 0,000 mm 0,0 UV-I 0 W/m 11,8 C 12,4 C 4,0 km/h (1 Bft) 0,00 %
20.09.2015 04:37 12,3 C 96 % 1020,7 hPa 0,0 l/m 2,2 km/h (1 Bft) S 183 0 min 0,000 mm 0,0 UV-I 0 W/m 11,7 C 12,3 C 4,0 km/h (1 Bft) 0,00 %
20.09.2015 04:42 12,3 C 95 % 1020,6 hPa 0,0 l/m 0,0 km/h (0 Bft) W-NW 293 0 min 0,000 mm 0,0 UV-I 0 W/m 11,5 C 12,3 C 0,0 km/h (0 Bft) 0,00 %
20.09.2015 04:47 12,3 C 95 % 1020,6 hPa 0,0 l/m 4,0 km/h (1 Bft) SW 217 0 min 0,000 mm 0,0 UV-I 0 W/m 11,5 C 12,3 C 7,9 km/h (2 Bft) 0,00 %
20.09.2015 04:52 12,2 C 95 % 1020,7 hPa 0,0 l/m 3,2 km/h (1 Bft) NO 45 0 min 0,000 mm 0,0 UV-I 0 W/m 11,4 C 12,2 C 4,0 km/h (1 Bft) 0,00 %
20.09.2015 04:57 12,1 C 94 % 1020,6 hPa 0,0 l/m 3,2 km/h (1 Bft) S-SW 201 0 min 0,000 mm 0,0 UV-I 0 W/m 11,2 C 12,1 C 4,0 km/h (1 Bft) 0,00 %
20.09.2015 05:02 12,1 C 94 % 1020,6 hPa 0,0 l/m 1,4 km/h (1 Bft) S 188 0 min 0,000 mm 0,0 UV-I 0 W/m 11,2 C 12,1 C 4,0 km/h (1 Bft) 0,00 %
20.09.2015 05:07 12,0 C 93 % 1020,4 hPa 0,0 l/m 6,5 km/h (2 Bft) S 179 0 min 0,000 mm 0,0 UV-I 0 W/m 10,9 C 12,0 C 7,9 km/h (2 Bft) 0,00 %
20.09.2015 05:12 12,0 C 93 % 1020,7 hPa 0,0 l/m 6,8 km/h (2 Bft) W-SW 251 0 min 0,000 mm 0,0 UV-I 0 W/m 10,9 C 11,7 C 7,9 km/h (2 Bft) 0,00 %
20.09.2015 05:17 12,0 C 92 % 1020,8 hPa 0,0 l/m 2,2 km/h (1 Bft) S-SW 201 0 min 0,000 mm 0,0 UV-I 0 W/m 10,7 C 12,0 C 4,0 km/h (1 Bft) 0,00 %
20.09.2015 05:22 12,0 C 92 % 1020,9 hPa 0,0 l/m 4,3 km/h (1 Bft) S 182 0 min 0,000 mm 0,0 UV-I 0 W/m 10,7 C 12,0 C 7,9 km/h (2 Bft) 0,00 %
20.09.2015 05:27 12,0 C 92 % 1020,7 hPa 0,0 l/m 5,4 km/h (1 Bft) S 172 0 min 0,000 mm 0,0 UV-I 0 W/m 10,7 C 12,0 C 7,9 km/h (2 Bft) 0,00 %
20.09.2015 05:32 11,9 C 91 % 1020,9 hPa 0,0 l/m 0,4 km/h (0 Bft) SO 133 0 min 0,000 mm 0,0 UV-I 0 W/m 10,5 C 11,9 C 4,0 km/h (1 Bft) 0,00 %
20.09.2015 05:37 11,9 C 91 % 1020,8 hPa 0,0 l/m 4,3 km/h (1 Bft) S-SW 201 0 min 0,000 mm 0,0 UV-I 0 W/m 10,5 C 11,9 C 7,9 km/h (2 Bft) 0,00 %
20.09.2015 05:42 11,9 C 92 % 1020,9 hPa 0,0 l/m 6,5 km/h (2 Bft) S-SW 212 0 min 0,000 mm 0,0 UV-I 0 W/m 10,6 C 11,9 C 7,9 km/h (2 Bft) 0,00 %
20.09.2015 05:47 11,8 C 92 % 1020,8 hPa 0,0 l/m 3,2 km/h (1 Bft) SW 214 0 min 0,000 mm 0,0 UV-I 0 W/m 10,5 C 11,8 C 4,0 km/h (1 Bft) 0,00 %
20.09.2015 05:52 11,8 C 92 % 1020,9 hPa 0,0 l/m 1,4 km/h (1 Bft) W-SW 252 0 min 0,000 mm 0,0 UV-I 0 W/m 10,5 C 11,8 C 4,0 km/h (1 Bft) 0,00 %
20.09.2015 05:57 11,8 C 92 % 1020,9 hPa 0,0 l/m 0,0 km/h (0 Bft) N 2 0 min 0,000 mm 0,0 UV-I 0 W/m 10,5 C 11,8 C 0,0 km/h (0 Bft) 0,00 %
20.09.2015 06:02 11,8 C 92 % 1020,9 hPa 0,0 l/m 1,8 km/h (1 Bft) S 174 0 min 0,000 mm 0,0 UV-I 0 W/m 10,5 C 11,8 C 4,0 km/h (1 Bft) 0,00 %
20.09.2015 06:07 11,7 C 92 % 1020,9 hPa 0,0 l/m 0,4 km/h (0 Bft) N-NW 334 0 min 0,000 mm 0,0 UV-I 0 W/m 10,4 C 11,7 C 4,0 km/h (1 Bft) 0,00 %
20.09.2015 06:12 11,7 C 92 % 1021,0 hPa 0,0 l/m 0,4 km/h (0 Bft) O-NO 76 0 min 0,000 mm 0,0 UV-I 0 W/m 10,4 C 11,7 C 4,0 km/h (1 Bft) 0,00 %
20.09.2015 06:17 11,7 C 91 % 1020,9 hPa 0,0 l/m 4,7 km/h (1 Bft) W-SW 248 0 min 0,000 mm 0,0 UV-I 0 W/m 10,3 C 11,7 C 7,9 km/h (2 Bft) 0,00 %
20.09.2015 06:22 11,7 C 91 % 1021,0 hPa 0,0 l/m 5,4 km/h (1 Bft) S 175 0 min 0,000 mm 0,0 UV-I 0 W/m 10,3 C 11,7 C 7,9 km/h (2 Bft) 0,00 %
20.09.2015 06:27 11,7 C 91 % 1021,0 hPa 0,0 l/m 1,8 km/h (1 Bft) S 181 0 min 0,000 mm 0,0 UV-I 0 W/m 10,3 C 11,7 C 4,0 km/h (1 Bft) 0,00 %
20.09.2015 06:32 11,7 C 91 % 1020,9 hPa 0,0 l/m 2,9 km/h (1 Bft) W-SW 255 0 min 0,000 mm 0,0 UV-I 0 W/m 10,3 C 11,7 C 4,0 km/h (1 Bft) 0,00 %
20.09.2015 06:37 11,7 C 91 % 1020,8 hPa 0,0 l/m 6,5 km/h (2 Bft) W-SW 256 0 min 0,000 mm 0,0 UV-I 0 W/m 10,3 C 11,7 C 7,9 km/h (2 Bft) 0,00 %
20.09.2015 06:42 11,6 C 91 % 1021,0 hPa 0,0 l/m 6,5 km/h (2 Bft) S-SW 198 0 min 0,000 mm 0,0 UV-I 0 W/m 10,2 C 11,6 C 7,9 km/h (2 Bft) 0,00 %
20.09.2015 06:47 11,6 C 91 % 1020,9 hPa 0,0 l/m 4,3 km/h (1 Bft) S 173 0 min 0,000 mm 0,0 UV-I 0 W/m 10,2 C 11,6 C 7,9 km/h (2 Bft) 0,00 %
20.09.2015 06:52 11,6 C 91 % 1021,2 hPa 0,0 l/m 5,4 km/h (1 Bft) O-NO 76 0 min 0,000 mm 0,0 UV-I 0 W/m 10,2 C 11,6 C 7,9 km/h (2 Bft) 0,00 %
20.09.2015 06:57 11,6 C 91 % 1021,5 hPa 0,0 l/m 2,2 km/h (1 Bft) SO 140 0 min 0,000 mm 0,0 UV-I 0 W/m 10,2 C 11,6 C 4,0 km/h (1 Bft) 0,00 %
20.09.2015 07:02 11,6 C 91 % 1021,3 hPa 0,0 l/m 2,2 km/h (1 Bft) S-SW 205 0 min 0,000 mm 0,0 UV-I 0 W/m 10,2 C 11,6 C 4,0 km/h (1 Bft) 0,00 %
20.09.2015 07:07 11,6 C 92 % 1021,3 hPa 0,0 l/m 4,7 km/h (1 Bft) W-SW 252 0 min 0,000 mm 0,0 UV-I 0 W/m 10,3 C 11,6 C 11,9 km/h (2 Bft) 0,00 %
20.09.2015 07:12 11,6 C 92 % 1021,5 hPa 0,0 l/m 3,2 km/h (1 Bft) S-SW 203 0 min 0,000 mm 0,0 UV-I 0 W/m 10,3 C 11,6 C 7,9 km/h (2 Bft) 0,00 %
20.09.2015 07:17 11,5 C 92 % 1021,7 hPa 0,0 l/m 7,9 km/h (2 Bft) S-SW 193 0 min 0,000 mm 0,0 UV-I 0 W/m 10,2 C 10,5 C 7,9 km/h (2 Bft) 0,00 %
20.09.2015 07:22 11,5 C 92 % 1021,8 hPa 0,0 l/m 3,2 km/h (1 Bft) S 173 0 min 0,000 mm 0,0 UV-I 0 W/m 10,2 C 11,5 C 7,9 km/h (2 Bft) 0,00 %
20.09.2015 07:27 11,5 C 92 % 1021,8 hPa 0,0 l/m 4,3 km/h (1 Bft) S-SW 208 0 min 0,000 mm 0,0 UV-I 0 W/m 10,2 C 11,5 C 7,9 km/h (2 Bft) 0,00 %
20.09.2015 07:32 11,5 C 92 % 1021,9 hPa 0,0 l/m 0,0 km/h (0 Bft) NW 305 0 min 0,000 mm 0,0 UV-I 0 W/m 10,2 C 11,5 C 0,0 km/h (0 Bft) 0,00 %
20.09.2015 07:37 11,5 C 91 % 1022,0 hPa 0,0 l/m 2,9 km/h (1 Bft) S-SW 207 0 min 0,000 mm 0,0 UV-I 2 W/m 10,1 C 11,5 C 4,0 km/h (1 Bft) 0,00 %
20.09.2015 07:42 11,5 C 91 % 1022,0 hPa 0,0 l/m 2,9 km/h (1 Bft) S 179 0 min 0,000 mm 0,0 UV-I 2 W/m 10,1 C 11,5 C 4,0 km/h (1 Bft) 0,00 %
20.09.2015 07:47 11,5 C 91 % 1022,0 hPa 0,0 l/m 0,4 km/h (0 Bft) NW 315 0 min 0,000 mm 0,0 UV-I 5 W/m 10,1 C 11,5 C 4,0 km/h (1 Bft) 0,00 %
20.09.2015 07:52 11,6 C 91 % 1022,0 hPa 0,0 l/m 0,7 km/h (0 Bft) W-SW 251 0 min 0,000 mm 0,0 UV-I 9 W/m 10,2 C 11,6 C 4,0 km/h (1 Bft) 0,00 %
20.09.2015 07:57 11,6 C 91 % 1021,8 hPa 0,0 l/m 4,7 km/h (1 Bft) W-SW 256 0 min 0,000 mm 0,0 UV-I 12 W/m 10,2 C 11,6 C 7,9 km/h (2 Bft) 0,00 %
20.09.2015 08:02 11,6 C 91 % 1022,1 hPa 0,0 l/m 1,8 km/h (1 Bft) S-SW 197 0 min 0,000 mm 0,0 UV-I 19 W/m 10,2 C 11,6 C 4,0 km/h (1 Bft) 0,00 %
20.09.2015 08:07 11,6 C 91 % 1022,0 hPa 0,0 l/m 0,0 km/h (0 Bft) S-SO 150 0 min 0,000 mm 0,0 UV-I 24 W/m 10,2 C 11,6 C 0,0 km/h (0 Bft) 0,00 %
20.09.2015 08:12 11,6 C 91 % 1021,8 hPa 0,0 l/m 4,0 km/h (1 Bft) SW 218 0 min 0,000 mm 0,0 UV-I 32 W/m 10,2 C 11,6 C 7,9 km/h (2 Bft) 0,00 %
20.09.2015 08:17 11,6 C 91 % 1021,9 hPa 0,0 l/m 2,9 km/h (1 Bft) N-NW 337 0 min 0,000 mm 0,0 UV-I 39 W/m 10,2 C 11,6 C 7,9 km/h (2 Bft) 0,00 %
20.09.2015 08:22 11,6 C 91 % 1021,8 hPa 0,0 l/m 0,7 km/h (0 Bft) S-SW 201 0 min 0,000 mm 0,0 UV-I 50 W/m 10,2 C 11,6 C 4,0 km/h (1 Bft) 0,00 %
20.09.2015 08:27 11,7 C 91 % 1021,9 hPa 0,0 l/m 0,7 km/h (0 Bft) S 175 0 min 0,000 mm 0,0 UV-I 58 W/m 10,3 C 11,7 C 4,0 km/h (1 Bft) 0,00 %
20.09.2015 08:32 11,8 C 90 % 1022,1 hPa 0,0 l/m 0,7 km/h (0 Bft) SO 145 0 min 0,000 mm 0,0 UV-I 60 W/m 10,2 C 11,8 C 4,0 km/h (1 Bft) 0,00 %
20.09.2015 08:37 11,9 C 90 % 1021,9 hPa 0,0 l/m 1,8 km/h (1 Bft) SW 218 0 min 0,000 mm 0,0 UV-I 66 W/m 10,3 C 11,9 C 4,0 km/h (1 Bft) 0,00 %
20.09.2015 08:42 11,9 C 89 % 1021,8 hPa 0,0 l/m 0,7 km/h (0 Bft) SO 131 0 min 0,000 mm 0,0 UV-I 77 W/m 10,1 C 11,9 C 4,0 km/h (1 Bft) 0,00 %
20.09.2015 08:47 12,0 C 89 % 1021,8 hPa 0,0 l/m 0,0 km/h (0 Bft) S-SW 208 0 min 0,000 mm 0,0 UV-I 87 W/m 10,2 C 12,0 C 0,0 km/h (0 Bft) 0,00 %
20.09.2015 08:52 12,1 C 89 % 1021,9 hPa 0,0 l/m 0,0 km/h (0 Bft) O 83 0 min 0,000 mm 0,0 UV-I 94 W/m 10,3 C 12,1 C 0,0 km/h (0 Bft) 0,00 %
20.09.2015 08:57 12,2 C 89 % 1021,7 hPa 0,0 l/m 0,0 km/h (0 Bft) O-NO 58 0 min 0,000 mm 0,0 UV-I 93 W/m 10,4 C 12,2 C 0,0 km/h (0 Bft) 0,00 %
20.09.2015 09:02 12,3 C 88 % 1021,8 hPa 0,0 l/m 1,4 km/h (1 Bft) S 183 0 min 0,000 mm 0,0 UV-I 93 W/m 10,4 C 12,3 C 4,0 km/h (1 Bft) 0,00 %
20.09.2015 09:07 12,4 C 88 % 1021,7 hPa 0,0 l/m 1,4 km/h (1 Bft) S 169 0 min 0,000 mm 1,0 UV-I 116 W/m 10,5 C 12,4 C 4,0 km/h (1 Bft) 0,00 %
20.09.2015 09:12 12,5 C 87 % 1021,6 hPa 0,0 l/m 6,8 km/h (2 Bft) S 172 0 min 0,000 mm 1,0 UV-I 102 W/m 10,4 C 12,2 C 11,9 km/h (2 Bft) 0,00 %
20.09.2015 09:17 12,6 C 86 % 1021,9 hPa 0,0 l/m 4,0 km/h (1 Bft) S-SW 195 0 min 0,000 mm 1,0 UV-I 100 W/m 10,3 C 12,6 C 4,0 km/h (1 Bft) 0,00 %
20.09.2015 09:22 12,7 C 86 % 1021,8 hPa 0,0 l/m 0,4 km/h (0 Bft) O-NO 77 0 min 0,000 mm 1,0 UV-I 112 W/m 10,4 C 12,7 C 4,0 km/h (1 Bft) 0,00 %
20.09.2015 09:27 12,7 C 86 % 1021,7 hPa 0,0 l/m 0,0 km/h (0 Bft) S 178 0 min 0,000 mm 1,0 UV-I 152 W/m 10,4 C 12,7 C 0,0 km/h (0 Bft) 0,00 %
20.09.2015 09:32 12,8 C 85 % 1021,9 hPa 0,0 l/m 4,7 km/h (1 Bft) SW 215 0 min 0,000 mm 0,0 UV-I 104 W/m 10,3 C 12,8 C 7,9 km/h (2 Bft) 0,00 %
20.09.2015 09:37 13,0 C 84 % 1021,7 hPa 0,0 l/m 2,2 km/h (1 Bft) S 169 0 min 0,000 mm 1,0 UV-I 150 W/m 10,4 C 13,0 C 4,0 km/h (1 Bft) 0,00 %
20.09.2015 09:42 13,1 C 83 % 1021,7 hPa 0,0 l/m 4,0 km/h (1 Bft) NO 48 0 min 0,000 mm 1,0 UV-I 162 W/m 10,3 C 13,1 C 4,0 km/h (1 Bft) 0,00 %
20.09.2015 09:47 13,1 C 83 % 1021,7 hPa 0,0 l/m 2,2 km/h (1 Bft) S 173 0 min 0,000 mm 1,0 UV-I 187 W/m 10,3 C 13,1 C 7,9 km/h (2 Bft) 0,00 %
20.09.2015 09:52 13,1 C 82 % 1021,8 hPa 0,0 l/m 4,3 km/h (1 Bft) S 172 0 min 0,000 mm 1,0 UV-I 215 W/m 10,1 C 13,1 C 7,9 km/h (2 Bft) 0,00 %
20.09.2015 09:57 13,3 C 82 % 1021,7 hPa 0,0 l/m 10,8 km/h (2 Bft) S-SW 204 0 min 0,000 mm 1,0 UV-I 200 W/m 10,3 C 10,9 C 11,9 km/h (2 Bft) 0,00 %
20.09.2015 10:02 13,4 C 82 % 1021,8 hPa 0,0 l/m 4,7 km/h (1 Bft) S 180 0 min 0,000 mm 1,0 UV-I 238 W/m 10,4 C 13,4 C 7,9 km/h (2 Bft) 0,00 %
20.09.2015 10:07 13,5 C 82 % 1021,8 hPa 0,0 l/m 0,0 km/h (0 Bft) O-SO 102 0 min 0,000 mm 1,0 UV-I 244 W/m 10,5 C 13,5 C 0,0 km/h (0 Bft) 0,00 %
20.09.2015 10:12 13,6 C 81 % 1021,8 hPa 0,0 l/m 2,9 km/h (1 Bft) SW 225 0 min 0,000 mm 1,0 UV-I 268 W/m 10,4 C 13,6 C 4,0 km/h (1 Bft) 0,00 %
20.09.2015 10:17 13,8 C 79 % 1021,6 hPa 0,0 l/m 0,4 km/h (0 Bft) O-SO 108 5 min 0,000 mm 1,0 UV-I 341 W/m 10,2 C 13,8 C 4,0 km/h (1 Bft) 0,00 %
20.09.2015 10:22 14,0 C 80 % 1021,8 hPa 0,0 l/m 5,4 km/h (1 Bft) S-SW 203 5 min 0,000 mm 1,0 UV-I 297 W/m 10,6 C 14,0 C 7,9 km/h (2 Bft) 0,00 %
20.09.2015 10:27 14,4 C 75 % 1021,5 hPa 0,0 l/m 4,7 km/h (1 Bft) S-SW 199 5 min 0,000 mm 2,0 UV-I 348 W/m 10,0 C 14,4 C 7,9 km/h (2 Bft) 0,00 %
20.09.2015 10:32 14,7 C 74 % 1021,6 hPa 0,0 l/m 1,8 km/h (1 Bft) W-SW 253 5 min 0,000 mm 2,0 UV-I 351 W/m 10,1 C 14,7 C 4,0 km/h (1 Bft) 0,00 %
20.09.2015 10:37 15,0 C 72 % 1021,6 hPa 0,0 l/m 3,2 km/h (1 Bft) S 180 0 min 0,000 mm 1,0 UV-I 265 W/m 10,0 C 15,0 C 4,0 km/h (1 Bft) 0,00 %
20.09.2015 10:42 15,2 C 71 % 1021,7 hPa 0,0 l/m 1,4 km/h (1 Bft) O 94 5 min 0,000 mm 2,0 UV-I 366 W/m 10,0 C 15,2 C 4,0 km/h (1 Bft) 0,00 %
20.09.2015 10:47 15,4 C 70 % 1021,5 hPa 0,0 l/m 0,0 km/h (0 Bft) O-NO 60 5 min 0,000 mm 2,0 UV-I 471 W/m 10,0 C 15,4 C 0,0 km/h (0 Bft) 0,00 %
20.09.2015 10:52 15,6 C 68 % 1021,5 hPa 0,0 l/m 5,4 km/h (1 Bft) S 175 5 min 0,000 mm 2,0 UV-I 363 W/m 9,7 C 15,6 C 11,9 km/h (2 Bft) 0,00 %
20.09.2015 10:57 15,9 C 70 % 1021,6 hPa 0,0 l/m 4,0 km/h (1 Bft) SO 132 5 min 0,000 mm 2,0 UV-I 400 W/m 10,4 C 15,9 C 7,9 km/h (2 Bft) 0,00 %
20.09.2015 11:02 16,3 C 69 % 1021,5 hPa 0,0 l/m 1,8 km/h (1 Bft) SO 133 0 min 0,000 mm 1,0 UV-I 251 W/m 10,6 C 16,3 C 4,0 km/h (1 Bft) 0,00 %
20.09.2015 11:07 16,6 C 68 % 1021,4 hPa 0,0 l/m 9,4 km/h (2 Bft) S-SW 196 5 min 0,000 mm 2,0 UV-I 495 W/m 10,7 C 15,1 C 11,9 km/h (2 Bft) 0,00 %
20.09.2015 11:12 16,5 C 67 % 1021,2 hPa 0,0 l/m 10,8 km/h (2 Bft) S 180 5 min 0,000 mm 2,0 UV-I 471 W/m 10,4 C 14,5 C 15,8 km/h (3 Bft) 0,00 %
20.09.2015 11:17 16,1 C 69 % 1021,3 hPa 0,0 l/m 2,2 km/h (1 Bft) N-NW 332 5 min 0,000 mm 2,0 UV-I 372 W/m 10,4 C 16,1 C 4,0 km/h (1 Bft) 0,00 %
20.09.2015 11:22 15,7 C 70 % 1021,1 hPa 0,0 l/m 4,3 km/h (1 Bft) S 186 5 min 0,000 mm 2,0 UV-I 520 W/m 10,2 C 15,7 C 11,9 km/h (2 Bft) 0,00 %
20.09.2015 11:27 15,7 C 68 % 1021,0 hPa 0,0 l/m 9,0 km/h (2 Bft) SW 216 5 min 0,000 mm 2,0 UV-I 514 W/m 9,8 C 14,3 C 11,9 km/h (2 Bft) 0,00 %
20.09.2015 11:32 16,0 C 64 % 1021,0 hPa 0,0 l/m 13,3 km/h (3 Bft) S-SW 199 0 min 0,000 mm 2,0 UV-I 212 W/m 9,2 C 13,0 C 15,8 km/h (3 Bft) 0,00 %
20.09.2015 11:37 16,3 C 64 % 1021,0 hPa 0,0 l/m 17,3 km/h (3 Bft) SW 219 5 min 0,000 mm 2,0 UV-I 566 W/m 9,5 C 12,1 C 19,8 km/h (3 Bft) 0,00 %
20.09.2015 11:42 16,5 C 62 % 1021,1 hPa 0,0 l/m 2,2 km/h (1 Bft) S 179 5 min 0,000 mm 2,0 UV-I 631 W/m 9,2 C 16,5 C 4,0 km/h (1 Bft) 0,00 %
20.09.2015 11:47 16,8 C 62 % 1021,0 hPa 0,0 l/m 3,2 km/h (1 Bft) NW 322 5 min 0,000 mm 2,0 UV-I 641 W/m 9,5 C 16,8 C 4,0 km/h (1 Bft) 0,00 %
20.09.2015 11:52 17,0 C 61 % 1021,0 hPa 0,0 l/m 18,0 km/h (3 Bft) W-NW 302 0 min 0,000 mm 1,0 UV-I 154 W/m 9,4 C 12,8 C 24,1 km/h (4 Bft) 0,00 %
20.09.2015 11:57 16,5 C 64 % 1021,3 hPa 0,0 l/m 0,4 km/h (0 Bft) SO 130 0 min 0,000 mm 1,0 UV-I 206 W/m 9,7 C 16,5 C 4,0 km/h (1 Bft) 0,00 %
20.09.2015 12:02 15,9 C 65 % 1021,0 hPa 0,0 l/m 0,4 km/h (0 Bft) NO 41 0 min 0,000 mm 1,0 UV-I 267 W/m 9,3 C 15,9 C 4,0 km/h (1 Bft) 0,00 %
20.09.2015 12:07 15,8 C 64 % 1021,0 hPa 0,0 l/m 5,8 km/h (2 Bft) S-SW 193 5 min 0,000 mm 2,0 UV-I 389 W/m 9,0 C 15,8 C 7,9 km/h (2 Bft) 0,00 %
20.09.2015 12:12 16,2 C 62 % 1020,7 hPa 0,0 l/m 2,9 km/h (1 Bft) O-NO 65 0 min 0,000 mm 1,0 UV-I 269 W/m 8,9 C 16,2 C 4,0 km/h (1 Bft) 0,00 %
20.09.2015 12:17 16,5 C 63 % 1021,0 hPa 0,0 l/m 6,5 km/h (2 Bft) S 178 0 min 0,000 mm 1,0 UV-I 357 W/m 9,4 C 16,5 C 7,9 km/h (2 Bft) 0,00 %
20.09.2015 12:22 16,6 C 62 % 1021,0 hPa 0,0 l/m 0,4 km/h (0 Bft) O-NO 69 0 min 0,000 mm 1,0 UV-I 348 W/m 9,3 C 16,6 C 4,0 km/h (1 Bft) 0,00 %
20.09.2015 12:27 16,6 C 62 % 1020,9 hPa 0,0 l/m 8,3 km/h (2 Bft) S 189 0 min 0,000 mm 1,0 UV-I 257 W/m 9,3 C 15,6 C 11,9 km/h (2 Bft) 0,00 %
20.09.2015 12:32 16,6 C 62 % 1021,1 hPa 0,0 l/m 4,3 km/h (1 Bft) S-SW 203 0 min 0,000 mm 1,0 UV-I 164 W/m 9,3 C 16,6 C 7,9 km/h (2 Bft) 0,00 %
20.09.2015 12:37 16,4 C 64 % 1021,0 hPa 0,0 l/m 3,2 km/h (1 Bft) S-SW 211 0 min 0,000 mm 1,0 UV-I 177 W/m 9,6 C 16,4 C 7,9 km/h (2 Bft) 0,00 %
20.09.2015 12:42 16,0 C 65 % 1020,6 hPa 0,0 l/m 5,4 km/h (1 Bft) W-SW 252 5 min 0,000 mm 3,0 UV-I 760 W/m 9,4 C 16,0 C 7,9 km/h (2 Bft) 0,00 %
20.09.2015 12:47 16,0 C 62 % 1020,7 hPa 0,0 l/m 14,0 km/h (3 Bft) S-SW 201 5 min 0,000 mm 3,0 UV-I 864 W/m 8,7 C 12,7 C 19,8 km/h (3 Bft) 0,00 %
20.09.2015 12:52 16,6 C 59 % 1020,8 hPa 0,0 l/m 3,2 km/h (1 Bft) SW 227 0 min 0,000 mm 1,0 UV-I 230 W/m 8,6 C 16,6 C 7,9 km/h (2 Bft) 0,00 %
20.09.2015 12:57 17,0 C 60 % 1020,7 hPa 0,0 l/m 5,4 km/h (1 Bft) S 187 0 min 0,000 mm 1,0 UV-I 206 W/m 9,2 C 17,0 C 7,9 km/h (2 Bft) 0,00 %
20.09.2015 13:02 16,8 C 60 % 1020,5 hPa 0,0 l/m 5,8 km/h (2 Bft) O-SO 111 0 min 0,000 mm 2,0 UV-I 279 W/m 9,0 C 16,8 C 11,9 km/h (2 Bft) 0,00 %
20.09.2015 13:07 16,5 C 60 % 1020,5 hPa 0,0 l/m 4,7 km/h (1 Bft) S-SW 210 0 min 0,000 mm 1,0 UV-I 291 W/m 8,7 C 16,5 C 7,9 km/h (2 Bft) 0,00 %
20.09.2015 13:12 16,4 C 60 % 1020,5 hPa 0,0 l/m 4,0 km/h (1 Bft) S 190 0 min 0,000 mm 2,0 UV-I 334 W/m 8,6 C 16,4 C 7,9 km/h (2 Bft) 0,00 %
20.09.2015 13:17 16,4 C 60 % 1020,5 hPa 0,0 l/m 7,2 km/h (2 Bft) W 263 0 min 0,000 mm 1,0 UV-I 314 W/m 8,6 C 16,0 C 11,9 km/h (2 Bft) 0,00 %
20.09.2015 13:22 16,4 C 61 % 1020,2 hPa 0,0 l/m 4,3 km/h (1 Bft) W-SW 253 0 min 0,000 mm 2,0 UV-I 341 W/m 8,9 C 16,4 C 7,9 km/h (2 Bft) 0,00 %
20.09.2015 13:27 16,4 C 60 % 1020,3 hPa 0,0 l/m 0,7 km/h (0 Bft) O-SO 110 0 min 0,000 mm 2,0 UV-I 371 W/m 8,6 C 16,4 C 4,0 km/h (1 Bft) 0,00 %
20.09.2015 13:32 16,4 C 59 % 1020,3 hPa 0,0 l/m 7,2 km/h (2 Bft) S-SW 197 5 min 0,000 mm 2,0 UV-I 518 W/m 8,4 C 16,0 C 7,9 km/h (2 Bft) 0,00 %
20.09.2015 13:37 16,4 C 58 % 1020,3 hPa 0,0 l/m 7,9 km/h (2 Bft) S 184 5 min 0,000 mm 2,0 UV-I 459 W/m 8,1 C 15,6 C 7,9 km/h (2 Bft) 0,00 %
20.09.2015 13:42 16,7 C 58 % 1020,1 hPa 0,0 l/m 7,2 km/h (2 Bft) S-SW 199 5 min 0,000 mm 2,0 UV-I 487 W/m 8,4 C 16,3 C 11,9 km/h (2 Bft) 0,00 %
20.09.2015 13:47 16,9 C 57 % 1020,0 hPa 0,0 l/m 9,7 km/h (2 Bft) W-SW 238 5 min 0,000 mm 2,0 UV-I 479 W/m 8,3 C 15,3 C 15,8 km/h (3 Bft) 0,00 %
20.09.2015 13:52 17,2 C 57 % 1020,2 hPa 0,0 l/m 6,8 km/h (2 Bft) S 179 5 min 0,000 mm 2,0 UV-I 418 W/m 8,6 C 17,0 C 11,9 km/h (2 Bft) 0,00 %
20.09.2015 13:57 17,3 C 56 % 1020,1 hPa 0,0 l/m 6,5 km/h (2 Bft) SW 236 0 min 0,000 mm 1,0 UV-I 280 W/m 8,4 C 17,3 C 11,9 km/h (2 Bft) 0,00 %
20.09.2015 14:02 17,1 C 58 % 1020,2 hPa 0,0 l/m 7,9 km/h (2 Bft) S-SW 196 0 min 0,000 mm 0,0 UV-I 132 W/m 8,8 C 16,4 C 7,9 km/h (2 Bft) 0,00 %
20.09.2015 14:07 16,7 C 59 % 1020,4 hPa 0,0 l/m 6,8 km/h (2 Bft) SW 228 0 min 0,000 mm 0,0 UV-I 122 W/m 8,6 C 16,5 C 11,9 km/h (2 Bft) 0,00 %
20.09.2015 14:12 16,1 C 62 % 1020,5 hPa 0,0 l/m 1,8 km/h (1 Bft) S-SW 198 0 min 0,000 mm 0,0 UV-I 93 W/m 8,8 C 16,1 C 4,0 km/h (1 Bft) 0,00 %
20.09.2015 14:17 15,8 C 62 % 1020,8 hPa 0,0 l/m 0,7 km/h (0 Bft) O-SO 114 0 min 0,000 mm 0,0 UV-I 102 W/m 8,5 C 15,8 C 4,0 km/h (1 Bft) 0,00 %
20.09.2015 14:22 15,6 C 63 % 1020,6 hPa 0,0 l/m 0,0 km/h (0 Bft) N 357 0 min 0,000 mm 1,0 UV-I 138 W/m 8,6 C 15,6 C 0,0 km/h (0 Bft) 0,00 %
20.09.2015 14:27 15,6 C 64 % 1020,4 hPa 0,0 l/m 6,5 km/h (2 Bft) W-NW 295 0 min 0,000 mm 1,0 UV-I 218 W/m 8,8 C 15,6 C 11,9 km/h (2 Bft) 0,00 %
20.09.2015 14:32 15,5 C 64 % 1020,6 hPa 0,0 l/m 6,5 km/h (2 Bft) SW 231 0 min 0,000 mm 1,0 UV-I 256 W/m 8,7 C 15,5 C 7,9 km/h (2 Bft) 0,00 %
20.09.2015 14:37 15,6 C 64 % 1020,3 hPa 0,0 l/m 0,0 km/h (0 Bft) NO 56 0 min 0,000 mm 1,0 UV-I 266 W/m 8,8 C 15,6 C 0,0 km/h (0 Bft) 0,00 %
20.09.2015 14:42 15,8 C 61 % 1020,3 hPa 0,0 l/m 0,0 km/h (0 Bft) O-NO 76 0 min 0,000 mm 1,0 UV-I 242 W/m 8,3 C 15,8 C 0,0 km/h (0 Bft) 0,00 %
20.09.2015 14:47 16,0 C 61 % 1020,4 hPa 0,0 l/m 2,2 km/h (1 Bft) W-SW 256 0 min 0,000 mm 1,0 UV-I 222 W/m 8,5 C 16,0 C 4,0 km/h (1 Bft) 0,00 %
20.09.2015 14:52 16,2 C 61 % 1020,3 hPa 0,0 l/m 0,7 km/h (0 Bft) SO 143 0 min 0,000 mm 1,0 UV-I 249 W/m 8,7 C 16,2 C 4,0 km/h (1 Bft) 0,00 %
20.09.2015 14:57 16,2 C 60 % 1020,2 hPa 0,0 l/m 0,0 km/h (0 Bft) O-NO 64 0 min 0,000 mm 1,0 UV-I 241 W/m 8,4 C 16,2 C 0,0 km/h (0 Bft) 0,00 %
20.09.2015 15:02 16,0 C 61 % 1020,3 hPa 0,0 l/m 3,2 km/h (1 Bft) W-NW 284 0 min 0,000 mm 1,0 UV-I 223 W/m 8,5 C 16,0 C 7,9 km/h (2 Bft) 0,00 %
20.09.2015 15:07 16,1 C 61 % 1020,3 hPa 0,0 l/m 0,7 km/h (0 Bft) O 88 0 min 0,000 mm 1,0 UV-I 206 W/m 8,6 C 16,1 C 4,0 km/h (1 Bft) 0,00 %
20.09.2015 15:12 16,2 C 61 % 1020,1 hPa 0,0 l/m 1,4 km/h (1 Bft) O 89 0 min 0,000 mm 1,0 UV-I 250 W/m 8,7 C 16,2 C 4,0 km/h (1 Bft) 0,00 %
20.09.2015 15:17 16,1 C 61 % 1020,2 hPa 0,0 l/m 10,4 km/h (2 Bft) S 190 0 min 0,000 mm 1,0 UV-I 308 W/m 8,6 C 14,2 C 15,8 km/h (3 Bft) 0,00 %
20.09.2015 15:22 16,1 C 61 % 1020,0 hPa 0,0 l/m 4,0 km/h (1 Bft) S 178 0 min 0,000 mm 1,0 UV-I 300 W/m 8,6 C 16,1 C 7,9 km/h (2 Bft) 0,00 %
20.09.2015 15:27 16,2 C 60 % 1020,2 hPa 0,0 l/m 5,8 km/h (2 Bft) S-SW 200 0 min 0,000 mm 1,0 UV-I 263 W/m 8,4 C 16,2 C 7,9 km/h (2 Bft) 0,00 %
20.09.2015 15:32 16,2 C 61 % 1020,1 hPa 0,0 l/m 2,2 km/h (1 Bft) S 178 5 min 0,000 mm 1,0 UV-I 896 W/m 8,7 C 16,2 C 4,0 km/h (1 Bft) 0,00 %
20.09.2015 15:37 16,4 C 58 % 1020,2 hPa 0,0 l/m 6,8 km/h (2 Bft) S-SW 208 0 min 0,000 mm 1,0 UV-I 266 W/m 8,1 C 16,2 C 11,9 km/h (2 Bft) 0,00 %
20.09.2015 15:42 16,9 C 57 % 1020,2 hPa 0,0 l/m 10,4 km/h (2 Bft) S-SW 198 0 min 0,000 mm 1,0 UV-I 178 W/m 8,3 C 15,1 C 15,8 km/h (3 Bft) 0,00 %
20.09.2015 15:47 16,9 C 59 % 1020,4 hPa 0,0 l/m 4,0 km/h (1 Bft) NO 44 0 min 0,000 mm 1,0 UV-I 124 W/m 8,8 C 16,9 C 7,9 km/h (2 Bft) 0,00 %
20.09.2015 15:52 16,4 C 59 % 1020,5 hPa 0,0 l/m 6,8 km/h (2 Bft) S 183 0 min 0,000 mm 0,0 UV-I 98 W/m 8,4 C 16,2 C 7,9 km/h (2 Bft) 0,00 %
20.09.2015 15:57 16,0 C 60 % 1020,7 hPa 0,0 l/m 6,8 km/h (2 Bft) NW 325 0 min 0,000 mm 0,0 UV-I 100 W/m 8,2 C 15,8 C 7,9 km/h (2 Bft) 0,00 %
20.09.2015 16:02 15,7 C 61 % 1020,6 hPa 0,0 l/m 0,4 km/h (0 Bft) S 184 0 min 0,000 mm 1,0 UV-I 116 W/m 8,2 C 15,7 C 4,0 km/h (1 Bft) 0,00 %
20.09.2015 16:07 15,6 C 62 % 1020,6 hPa 0,0 l/m 3,2 km/h (1 Bft) N-NW 329 0 min 0,000 mm 1,0 UV-I 136 W/m 8,3 C 15,6 C 7,9 km/h (2 Bft) 0,00 %
20.09.2015 16:12 15,6 C 61 % 1020,6 hPa 0,0 l/m 2,9 km/h (1 Bft) SW 224 0 min 0,000 mm 1,0 UV-I 158 W/m 8,1 C 15,6 C 4,0 km/h (1 Bft) 0,00 %
20.09.2015 16:17 15,6 C 60 % 1020,4 hPa 0,0 l/m 0,0 km/h (0 Bft) S-SO 167 0 min 0,000 mm 1,0 UV-I 131 W/m 7,9 C 15,6 C 0,0 km/h (0 Bft) 0,00 %
20.09.2015 16:22 15,5 C 60 % 1020,5 hPa 0,0 l/m 7,2 km/h (2 Bft) W-SW 255 0 min 0,000 mm 1,0 UV-I 144 W/m 7,8 C 15,1 C 11,9 km/h (2 Bft) 0,00 %
20.09.2015 16:27 15,4 C 60 % 1020,3 hPa 0,0 l/m 9,4 km/h (2 Bft) S 191 0 min 0,000 mm 1,0 UV-I 159 W/m 7,7 C 13,8 C 11,9 km/h (2 Bft) 0,00 %
20.09.2015 16:32 15,4 C 60 % 1020,3 hPa 0,0 l/m 0,7 km/h (0 Bft) O-SO 118 0 min 0,000 mm 1,0 UV-I 168 W/m 7,7 C 15,4 C 4,0 km/h (1 Bft) 0,00 %
20.09.2015 16:37 15,5 C 61 % 1020,2 hPa 0,0 l/m 7,2 km/h (2 Bft) W-SW 256 0 min 0,000 mm 1,0 UV-I 122 W/m 8,0 C 15,1 C 7,9 km/h (2 Bft) 0,00 %
20.09.2015 16:42 15,5 C 61 % 1020,3 hPa 0,0 l/m 0,0 km/h (0 Bft) O-NO 61 0 min 0,000 mm 1,0 UV-I 109 W/m 8,0 C 15,5 C 0,0 km/h (0 Bft) 0,00 %
20.09.2015 16:47 15,5 C 60 % 1020,6 hPa 0,0 l/m 1,4 km/h (1 Bft) S 177 0 min 0,000 mm 0,0 UV-I 87 W/m 7,8 C 15,5 C 4,0 km/h (1 Bft) 0,00 %
20.09.2015 16:52 15,5 C 61 % 1020,6 hPa 0,0 l/m 1,4 km/h (1 Bft) W-SW 255 0 min 0,000 mm 0,0 UV-I 68 W/m 8,0 C 15,5 C 4,0 km/h (1 Bft) 0,00 %
20.09.2015 16:57 15,4 C 61 % 1020,6 hPa 0,0 l/m 1,8 km/h (1 Bft) S-SW 192 0 min 0,000 mm 0,0 UV-I 52 W/m 7,9 C 15,4 C 4,0 km/h (1 Bft) 0,00 %
20.09.2015 17:02 15,4 C 61 % 1020,8 hPa 0,0 l/m 3,2 km/h (1 Bft) N-NW 338 0 min 0,000 mm 0,0 UV-I 43 W/m 7,9 C 15,4 C 4,0 km/h (1 Bft) 0,00 %
20.09.2015 17:07 15,3 C 60 % 1021,1 hPa 0,0 l/m 3,2 km/h (1 Bft) W-SW 256 0 min 0,000 mm 0,0 UV-I 42 W/m 7,6 C 15,3 C 4,0 km/h (1 Bft) 0,00 %
20.09.2015 17:12 15,2 C 61 % 1021,0 hPa 0,0 l/m 0,0 km/h (0 Bft) N 350 0 min 0,000 mm 0,0 UV-I 42 W/m 7,7 C 15,2 C 0,0 km/h (0 Bft) 0,00 %
20.09.2015 17:17 15,1 C 61 % 1021,0 hPa 0,0 l/m 1,8 km/h (1 Bft) NW 313 0 min 0,000 mm 0,0 UV-I 44 W/m 7,6 C 15,1 C 4,0 km/h (1 Bft) 0,00 %
20.09.2015 17:22 15,0 C 61 % 1020,9 hPa 0,0 l/m 1,8 km/h (1 Bft) N 350 0 min 0,000 mm 0,0 UV-I 47 W/m 7,5 C 15,0 C 4,0 km/h (1 Bft) 0,00 %
20.09.2015 17:27 15,0 C 61 % 1020,9 hPa 0,0 l/m 0,0 km/h (0 Bft) NO 41 0 min 0,000 mm 0,0 UV-I 46 W/m 7,5 C 15,0 C 0,0 km/h (0 Bft) 0,00 %
20.09.2015 17:33 15,0 C 62 % 1021,0 hPa 0,0 l/m 0,7 km/h (0 Bft) SO 127 0 min 0,000 mm 0,0 UV-I 44 W/m 7,8 C 15,0 C 4,0 km/h (1 Bft) 0,00 %
20.09.2015 17:38 14,9 C 63 % 1021,0 hPa 0,0 l/m 0,4 km/h (0 Bft) NO 54 0 min 0,000 mm 0,0 UV-I 38 W/m 7,9 C 14,9 C 4,0 km/h (1 Bft) 0,00 %
20.09.2015 17:43 14,9 C 63 % 1021,1 hPa 0,0 l/m 1,8 km/h (1 Bft) N-NO 27 0 min 0,000 mm 0,0 UV-I 30 W/m 7,9 C 14,9 C 4,0 km/h (1 Bft) 0,00 %
20.09.2015 17:48 14,8 C 63 % 1021,1 hPa 0,0 l/m 0,0 km/h (0 Bft) N 8 0 min 0,000 mm 0,0 UV-I 24 W/m 7,8 C 14,8 C 0,0 km/h (0 Bft) 0,00 %
20.09.2015 17:53 14,7 C 63 % 1021,0 hPa 0,0 l/m 4,3 km/h (1 Bft) NW 321 0 min 0,000 mm 0,0 UV-I 22 W/m 7,7 C 14,7 C 7,9 km/h (2 Bft) 0,00 %
20.09.2015 17:58 14,6 C 63 % 1021,0 hPa 0,0 l/m 5,4 km/h (1 Bft) SW 216 0 min 0,000 mm 0,0 UV-I 21 W/m 7,6 C 14,6 C 7,9 km/h (2 Bft) 0,00 %
20.09.2015 18:03 14,6 C 64 % 1021,0 hPa 0,0 l/m 0,4 km/h (0 Bft) NW 311 0 min 0,000 mm 0,0 UV-I 19 W/m 7,9 C 14,6 C 4,0 km/h (1 Bft) 0,00 %
20.09.2015 18:08 14,5 C 65 % 1021,1 hPa 0,0 l/m 0,4 km/h (0 Bft) N-NW 335 0 min 0,000 mm 0,0 UV-I 19 W/m 8,0 C 14,5 C 4,0 km/h (1 Bft) 0,00 %
20.09.2015 18:13 14,4 C 65 % 1021,0 hPa 0,0 l/m 0,0 km/h (0 Bft) O-NO 76 0 min 0,000 mm 0,0 UV-I 22 W/m 7,9 C 14,4 C 0,0 km/h (0 Bft) 0,00 %
20.09.2015 18:18 14,4 C 66 % 1021,2 hPa 0,0 l/m 0,0 km/h (0 Bft) NO 46 0 min 0,000 mm 0,0 UV-I 27 W/m 8,1 C 14,4 C 0,0 km/h (0 Bft) 0,00 %
20.09.2015 18:23 14,3 C 67 % 1021,1 hPa 0,0 l/m 1,8 km/h (1 Bft) S 190 0 min 0,000 mm 0,0 UV-I 31 W/m 8,3 C 14,3 C 4,0 km/h (1 Bft) 0,00 %
20.09.2015 18:28 14,2 C 67 % 1021,1 hPa 0,0 l/m 2,9 km/h (1 Bft) S 184 0 min 0,000 mm 0,0 UV-I 32 W/m 8,2 C 14,2 C 4,0 km/h (1 Bft) 0,00 %
20.09.2015 18:33 14,2 C 67 % 1021,0 hPa 0,0 l/m 0,4 km/h (0 Bft) SO 130 5 min 0,000 mm 0,0 UV-I 127 W/m 8,2 C 14,2 C 4,0 km/h (1 Bft) 0,00 %
20.09.2015 18:38 14,2 C 66 % 1021,0 hPa 0,0 l/m 2,2 km/h (1 Bft) S 173 5 min 0,000 mm 0,0 UV-I 88 W/m 7,9 C 14,2 C 4,0 km/h (1 Bft) 0,00 %
20.09.2015 18:43 14,3 C 66 % 1021,0 hPa 0,0 l/m 1,4 km/h (1 Bft) S-SW 210 5 min 0,000 mm 0,0 UV-I 64 W/m 8,0 C 14,3 C 4,0 km/h (1 Bft) 0,00 %
20.09.2015 18:48 14,3 C 65 % 1021,1 hPa 0,0 l/m 3,2 km/h (1 Bft) SW 230 5 min 0,000 mm 0,0 UV-I 31 W/m 7,8 C 14,3 C 7,9 km/h (2 Bft) 0,00 %
20.09.2015 18:53 14,3 C 65 % 1020,9 hPa 0,0 l/m 4,3 km/h (1 Bft) W-NW 287 5 min 0,000 mm 0,0 UV-I 22 W/m 7,8 C 14,3 C 7,9 km/h (2 Bft) 0,00 %
20.09.2015 18:58 14,2 C 65 % 1021,0 hPa 0,0 l/m 1,4 km/h (1 Bft) S-SW 197 0 min 0,000 mm 0,0 UV-I 10 W/m 7,7 C 14,2 C 4,0 km/h (1 Bft) 0,00 %
20.09.2015 19:03 14,1 C 67 % 1021,3 hPa 0,0 l/m 4,3 km/h (1 Bft) SO 131 0 min 0,000 mm 0,0 UV-I 3 W/m 8,1 C 14,1 C 7,9 km/h (2 Bft) 0,00 %
20.09.2015 19:08 13,8 C 68 % 1020,9 hPa 0,0 l/m 1,8 km/h (1 Bft) S-SW 205 0 min 0,000 mm 0,0 UV-I 0 W/m 8,0 C 13,8 C 4,0 km/h (1 Bft) 0,00 %
20.09.2015 19:13 13,7 C 69 % 1021,0 hPa 0,0 l/m 0,4 km/h (0 Bft) NO 44 0 min 0,000 mm 0,0 UV-I 0 W/m 8,1 C 13,7 C 4,0 km/h (1 Bft) 0,00 %
20.09.2015 19:18 13,5 C 70 % 1021,1 hPa 0,0 l/m 0,4 km/h (0 Bft) SW 217 0 min 0,000 mm 0,0 UV-I 0 W/m 8,1 C 13,5 C 4,0 km/h (1 Bft) 0,00 %
20.09.2015 19:23 13,3 C 70 % 1021,2 hPa 0,0 l/m 4,7 km/h (1 Bft) S-SW 202 0 min 0,000 mm 0,0 UV-I 0 W/m 7,9 C 13,3 C 7,9 km/h (2 Bft) 0,00 %
20.09.2015 19:28 13,2 C 70 % 1021,1 hPa 0,0 l/m 0,0 km/h (0 Bft) O 93 0 min 0,000 mm 0,0 UV-I 0 W/m 7,9 C 13,2 C 0,0 km/h (0 Bft) 0,00 %
20.09.2015 19:33 13,2 C 71 % 1021,0 hPa 0,0 l/m 0,4 km/h (0 Bft) S 182 0 min 0,000 mm 0,0 UV-I 0 W/m 8,1 C 13,2 C 4,0 km/h (1 Bft) 0,00 %
20.09.2015 19:38 13,1 C 71 % 1021,2 hPa 0,0 l/m 1,8 km/h (1 Bft) S-SW 200 0 min 0,000 mm 0,0 UV-I 0 W/m 8,0 C 13,1 C 4,0 km/h (1 Bft) 0,00 %
20.09.2015 19:43 13,0 C 73 % 1021,3 hPa 0,0 l/m 0,0 km/h (0 Bft) N 357 0 min 0,000 mm 0,0 UV-I 0 W/m 8,3 C 13,0 C 0,0 km/h (0 Bft) 0,00 %
20.09.2015 19:48 12,8 C 73 % 1021,4 hPa 0,0 l/m 0,7 km/h (0 Bft) SO 132 0 min 0,000 mm 0,0 UV-I 0 W/m 8,1 C 12,8 C 4,0 km/h (1 Bft) 0,00 %
20.09.2015 19:53 12,7 C 73 % 1021,4 hPa 0,0 l/m 0,0 km/h (0 Bft) NW 320 0 min 0,000 mm 0,0 UV-I 0 W/m 8,0 C 12,7 C 0,0 km/h (0 Bft) 0,00 %
20.09.2015 19:58 12,6 C 73 % 1021,4 hPa 0,0 l/m 0,0 km/h (0 Bft) O-NO 75 0 min 0,000 mm 0,0 UV-I 0 W/m 7,9 C 12,6 C 0,0 km/h (0 Bft) 0,00 %
20.09.2015 20:03 12,4 C 74 % 1021,3 hPa 0,0 l/m 1,8 km/h (1 Bft) S 183 0 min 0,000 mm 0,0 UV-I 0 W/m 7,9 C 12,4 C 4,0 km/h (1 Bft) 0,00 %
20.09.2015 20:08 12,2 C 74 % 1021,4 hPa 0,0 l/m 0,0 km/h (0 Bft) S 182 0 min 0,000 mm 0,0 UV-I 0 W/m 7,7 C 12,2 C 0,0 km/h (0 Bft) 0,00 %
20.09.2015 20:13 12,2 C 74 % 1021,4 hPa 0,0 l/m 4,3 km/h (1 Bft) SW 229 0 min 0,000 mm 0,0 UV-I 0 W/m 7,7 C 12,2 C 7,9 km/h (2 Bft) 0,00 %
20.09.2015 20:18 12,2 C 74 % 1021,5 hPa 0,0 l/m 5,4 km/h (1 Bft) S-SW 201 0 min 0,000 mm 0,0 UV-I 0 W/m 7,7 C 12,2 C 7,9 km/h (2 Bft) 0,00 %
20.09.2015 20:23 12,2 C 74 % 1021,4 hPa 0,0 l/m 7,9 km/h (2 Bft) S 185 0 min 0,000 mm 0,0 UV-I 0 W/m 7,7 C 11,2 C 7,9 km/h (2 Bft) 0,00 %
20.09.2015 20:28 12,2 C 74 % 1021,5 hPa 0,0 l/m 2,2 km/h (1 Bft) SO 131 0 min 0,000 mm 0,0 UV-I 0 W/m 7,7 C 12,2 C 4,0 km/h (1 Bft) 0,00 %
20.09.2015 20:33 12,2 C 74 % 1021,5 hPa 0,0 l/m 2,2 km/h (1 Bft) SW 220 0 min 0,000 mm 0,0 UV-I 0 W/m 7,7 C 12,2 C 4,0 km/h (1 Bft) 0,00 %
20.09.2015 20:38 12,1 C 74 % 1021,8 hPa 0,0 l/m 1,8 km/h (1 Bft) S-SW 199 0 min 0,000 mm 0,0 UV-I 0 W/m 7,6 C 12,1 C 4,0 km/h (1 Bft) 0,00 %
20.09.2015 20:43 12,0 C 75 % 1021,8 hPa 0,0 l/m 2,2 km/h (1 Bft) W-SW 251 0 min 0,000 mm 0,0 UV-I 0 W/m 7,7 C 12,0 C 4,0 km/h (1 Bft) 0,00 %
20.09.2015 20:48 11,9 C 76 % 1021,8 hPa 0,0 l/m 1,4 km/h (1 Bft) S 175 0 min 0,000 mm 0,0 UV-I 0 W/m 7,8 C 11,9 C 4,0 km/h (1 Bft) 0,00 %
20.09.2015 20:53 11,9 C 76 % 1021,6 hPa 0,0 l/m 0,7 km/h (0 Bft) SW 228 0 min 0,000 mm 0,0 UV-I 0 W/m 7,8 C 11,9 C 4,0 km/h (1 Bft) 0,00 %
20.09.2015 20:58 11,8 C 77 % 1021,8 hPa 0,0 l/m 0,4 km/h (0 Bft) S-SO 162 0 min 0,000 mm 0,0 UV-I 0 W/m 7,9 C 11,8 C 4,0 km/h (1 Bft) 0,00 %
20.09.2015 21:03 11,8 C 77 % 1021,9 hPa 0,0 l/m 2,9 km/h (1 Bft) S 177 0 min 0,000 mm 0,0 UV-I 0 W/m 7,9 C 11,8 C 4,0 km/h (1 Bft) 0,00 %
20.09.2015 21:08 11,7 C 77 % 1022,1 hPa 0,0 l/m 1,4 km/h (1 Bft) O-SO 120 0 min 0,000 mm 0,0 UV-I 0 W/m 7,8 C 11,7 C 4,0 km/h (1 Bft) 0,00 %
20.09.2015 21:13 11,7 C 78 % 1022,1 hPa 0,0 l/m 0,0 km/h (0 Bft) S 170 0 min 0,000 mm 0,0 UV-I 0 W/m 8,0 C 11,7 C 0,0 km/h (0 Bft) 0,00 %
20.09.2015 21:18 11,6 C 78 % 1022,0 hPa 0,0 l/m 0,0 km/h (0 Bft) N-NO 23 0 min 0,000 mm 0,0 UV-I 0 W/m 7,9 C 11,6 C 0,0 km/h (0 Bft) 0,00 %
20.09.2015 21:23 11,5 C 78 % 1022,1 hPa 0,0 l/m 0,0 km/h (0 Bft) O-NO 60 0 min 0,000 mm 0,0 UV-I 0 W/m 7,8 C 11,5 C 0,0 km/h (0 Bft) 0,00 %
20.09.2015 21:28 11,3 C 79 % 1022,2 hPa 0,0 l/m 0,0 km/h (0 Bft) O 90 0 min 0,000 mm 0,0 UV-I 0 W/m 7,8 C 11,3 C 0,0 km/h (0 Bft) 0,00 %
20.09.2015 21:33 11,1 C 80 % 1022,2 hPa 0,0 l/m 0,0 km/h (0 Bft) O-NO 74 0 min 0,000 mm 0,0 UV-I 0 W/m 7,8 C 11,1 C 0,0 km/h (0 Bft) 0,00 %
20.09.2015 21:38 10,9 C 81 % 1022,3 hPa 0,0 l/m 0,0 km/h (0 Bft) NO 56 0 min 0,000 mm 0,0 UV-I 0 W/m 7,8 C 10,9 C 0,0 km/h (0 Bft) 0,00 %
20.09.2015 21:43 10,7 C 81 % 1022,5 hPa 0,0 l/m 0,0 km/h (0 Bft) S 171 0 min 0,000 mm 0,0 UV-I 0 W/m 7,6 C 10,7 C 0,0 km/h (0 Bft) 0,00 %
20.09.2015 21:48 10,6 C 81 % 1022,4 hPa 0,0 l/m 0,0 km/h (0 Bft) S 187 0 min 0,000 mm 0,0 UV-I 0 W/m 7,5 C 10,6 C 0,0 km/h (0 Bft) 0,00 %
20.09.2015 21:53 10,6 C 82 % 1022,4 hPa 0,0 l/m 0,0 km/h (0 Bft) O-NO 57 0 min 0,000 mm 0,0 UV-I 0 W/m 7,7 C 10,6 C 0,0 km/h (0 Bft) 0,00 %
20.09.2015 21:58 10,6 C 82 % 1022,4 hPa 0,0 l/m 0,0 km/h (0 Bft) O-SO 107 0 min 0,000 mm 0,0 UV-I 0 W/m 7,7 C 10,6 C 0,0 km/h (0 Bft) 0,00 %
20.09.2015 22:03 10,7 C 82 % 1022,5 hPa 0,0 l/m 0,0 km/h (0 Bft) O 99 0 min 0,000 mm 0,0 UV-I 0 W/m 7,8 C 10,7 C 0,0 km/h (0 Bft) 0,00 %
20.09.2015 22:08 10,8 C 82 % 1022,5 hPa 0,0 l/m 0,0 km/h (0 Bft) NO 52 0 min 0,000 mm 0,0 UV-I 0 W/m 7,9 C 10,8 C 0,0 km/h (0 Bft) 0,00 %
20.09.2015 22:13 10,8 C 82 % 1022,6 hPa 0,0 l/m 1,8 km/h (1 Bft) O-SO 111 0 min 0,000 mm 0,0 UV-I 0 W/m 7,9 C 10,8 C 4,0 km/h (1 Bft) 0,00 %
20.09.2015 22:18 10,8 C 83 % 1022,5 hPa 0,0 l/m 0,4 km/h (0 Bft) O-SO 111 0 min 0,000 mm 0,0 UV-I 0 W/m 8,0 C 10,8 C 4,0 km/h (1 Bft) 0,00 %
20.09.2015 22:23 10,8 C 83 % 1022,4 hPa 0,0 l/m 1,4 km/h (1 Bft) S-SO 156 0 min 0,000 mm 0,0 UV-I 0 W/m 8,0 C 10,8 C 4,0 km/h (1 Bft) 0,00 %
20.09.2015 22:28 10,9 C 82 % 1022,4 hPa 0,0 l/m 0,7 km/h (0 Bft) S-SW 196 0 min 0,000 mm 0,0 UV-I 0 W/m 7,9 C 10,9 C 4,0 km/h (1 Bft) 0,00 %
20.09.2015 22:33 10,9 C 81 % 1022,2 hPa 0,0 l/m 0,4 km/h (0 Bft) S 177 0 min 0,000 mm 0,0 UV-I 0 W/m 7,8 C 10,9 C 4,0 km/h (1 Bft) 0,00 %
20.09.2015 22:38 10,9 C 81 % 1022,6 hPa 0,0 l/m 0,0 km/h (0 Bft) O-SO 109 0 min 0,000 mm 0,0 UV-I 0 W/m 7,8 C 10,9 C 0,0 km/h (0 Bft) 0,00 %
20.09.2015 22:43 11,0 C 81 % 1022,4 hPa 0,0 l/m 0,0 km/h (0 Bft) SO 136 0 min 0,000 mm 0,0 UV-I 0 W/m 7,9 C 11,0 C 0,0 km/h (0 Bft) 0,00 %
20.09.2015 22:48 11,0 C 82 % 1022,4 hPa 0,0 l/m 1,8 km/h (1 Bft) S 180 0 min 0,000 mm 0,0 UV-I 0 W/m 8,0 C 11,0 C 4,0 km/h (1 Bft) 0,00 %
20.09.2015 22:53 11,0 C 82 % 1022,5 hPa 0,0 l/m 1,4 km/h (1 Bft) O-SO 121 0 min 0,000 mm 0,0 UV-I 0 W/m 8,0 C 11,0 C 4,0 km/h (1 Bft) 0,00 %
20.09.2015 22:58 11,0 C 82 % 1022,3 hPa 0,0 l/m 1,4 km/h (1 Bft) S 188 0 min 0,000 mm 0,0 UV-I 0 W/m 8,0 C 11,0 C 4,0 km/h (1 Bft) 0,00 %
20.09.2015 23:03 10,9 C 84 % 1022,4 hPa 0,0 l/m 0,0 km/h (0 Bft) S 174 0 min 0,000 mm 0,0 UV-I 0 W/m 8,3 C 10,9 C 0,0 km/h (0 Bft) 0,00 %
20.09.2015 23:08 10,9 C 84 % 1022,4 hPa 0,0 l/m 0,0 km/h (0 Bft) S-SO 166 0 min 0,000 mm 0,0 UV-I 0 W/m 8,3 C 10,9 C 0,0 km/h (0 Bft) 0,00 %
20.09.2015 23:13 10,9 C 84 % 1022,3 hPa 0,0 l/m 0,0 km/h (0 Bft) SW 214 0 min 0,000 mm 0,0 UV-I 0 W/m 8,3 C 10,9 C 0,0 km/h (0 Bft) 0,00 %
20.09.2015 23:18 10,9 C 84 % 1022,2 hPa 0,0 l/m 0,0 km/h (0 Bft) NO 56 0 min 0,000 mm 0,0 UV-I 0 W/m 8,3 C 10,9 C 0,0 km/h (0 Bft) 0,00 %
20.09.2015 23:23 10,9 C 84 % 1022,2 hPa 0,0 l/m 0,4 km/h (0 Bft) SO 132 0 min 0,000 mm 0,0 UV-I 0 W/m 8,3 C 10,9 C 4,0 km/h (1 Bft) 0,00 %
20.09.2015 23:28 10,9 C 84 % 1022,3 hPa 0,0 l/m 1,8 km/h (1 Bft) S-SW 200 0 min 0,000 mm 0,0 UV-I 0 W/m 8,3 C 10,9 C 4,0 km/h (1 Bft) 0,00 %
20.09.2015 23:33 10,9 C 84 % 1022,4 hPa 0,0 l/m 0,0 km/h (0 Bft) O-SO 121 0 min 0,000 mm 0,0 UV-I 0 W/m 8,3 C 10,9 C 0,0 km/h (0 Bft) 0,00 %
20.09.2015 23:38 10,9 C 84 % 1022,3 hPa 0,0 l/m 0,0 km/h (0 Bft) O 88 0 min 0,000 mm 0,0 UV-I 0 W/m 8,3 C 10,9 C 0,0 km/h (0 Bft) 0,00 %
20.09.2015 23:43 10,8 C 84 % 1022,2 hPa 0,0 l/m 0,4 km/h (0 Bft) O-NO 76 0 min 0,000 mm 0,0 UV-I 0 W/m 8,2 C 10,8 C 4,0 km/h (1 Bft) 0,00 %
20.09.2015 23:48 10,8 C 83 % 1022,2 hPa 0,0 l/m 0,7 km/h (0 Bft) SW 234 0 min 0,000 mm 0,0 UV-I 0 W/m 8,0 C 10,8 C 4,0 km/h (1 Bft) 0,00 %
20.09.2015 23:53 10,8 C 83 % 1022,2 hPa 0,0 l/m 0,7 km/h (0 Bft) O-SO 103 0 min 0,000 mm 0,0 UV-I 0 W/m 8,0 C 10,8 C 4,0 km/h (1 Bft) 0,00 %
20.09.2015 23:58 10,8 C 83 % 1022,3 hPa 0,0 l/m 0,4 km/h (0 Bft) SO 127 0 min 0,000 mm 0,0 UV-I 0 W/m 8,0 C 10,8 C 4,0 km/h (1 Bft) 0,00 %
_ Min-Zeit 21:48 13:57 13:47 - 00:01 - - - - - - 21:48 07:17 00:01 00:01
Minimum _ 10,6 C 56 % 1020,0 hPa - 0,0 km/h (0 Bft) - - - - - - 7,5 C 10,5 C 0,0 km/h (0 Bft) 0,00 %
_ Max-Zeit 13:57 03:02 22:13 00:52 11:52 - - 10:17 00:01 12:42 15:32 00:06 13:57 11:52 00:01
Maximum _ 17,3 C 96 % 1022,6 hPa 0,3 l/m 18,0 km/h
W-NW (3 Bft)
- - 5 min 0,000 mm 3,0 UV-I 896 W/m 12,5 C 17,3 C 24,1 km/h
W-NW (4 Bft)
0,00 %
Durchschnitt _ 13,5 C 78 % 1021,2 hPa #2,4 l/m 2,7 km/h (1 Bft) S - #2:30 h #0,000 mm 1,3 UV-I 204 W/m 9,6 C 13,4 C 5,0 km/h (1 Bft) 0,00 %